[[{"header":{"parameterUnit":"m.s-1","parameterCategory":2,"la1":30.2991,"la2":30.254,"lo1":-89.0895,"lo2":-89.0444,"dy":0.0017,"dx":0.0017,"nx":28,"ny":28,"refTime":"2025-08-29T09:00:00:Z","depth":"0","parameterNumber":2,"parameterNumberName":"U-component_of_CURRENTS"},"data":[0,0,0,0,0,0,0,0,0,0,0,0,0,0,0,0,0,0,0,0,0,0,0,0,0,0,0,0,0,0,0,0,0,0,0,0,0,0,0,0,0,0,0,0,0,0,0,0,0,0,0,0,0,0,0,0,0,0,0.2626,0.2626,0,0.2607,0.2607,0.2607,0.2583,0.2583,0.2582,0.2582,0.2541,0.2541,0.254,0,0,0,0,0,0,0,0,0,0,0,0,0,0.2692,0.269,0.2626,0.2626,0.2625,0.2607,0.2607,0.2607,0.2583,0.2583,0.2582,0.2582,0.2542,0.2541,0.254,0,0,0,0,0,0,0,0,0,0,0,0,0,0.2667,0.269,0.2626,0.2611,0.261,0.2607,0.2607,0.2607,0.2583,0.2583,0.2582,0.2581,0.2542,0.2541,0.254,0.2545,0,0,0.2537,0.2536,0,0,0,0,0,0,0,0,0.2668,0.2665,0.2614,0.2612,0.2611,0.2597,0.2615,0.2585,0.2583,0.2593,0.2582,0.2581,0.2558,0.2556,0.2554,0.2543,0.2541,0.2536,0.2536,0.2535,0.2535,0,0,0,0,0,0,0,0.267,0.2666,0.2618,0.2613,0.2612,0.2623,0.2618,0.261,0.2579,0.2592,0.2591,0.2589,0.2557,0.2555,0.2553,0.2541,0.2536,0.2536,0.2535,0.2534,0.2571,0.2572,0,0,0,0,0,0,0.267,0.2667,0.2619,0.2618,0.2639,0.2622,0.2617,0.2602,0.2579,0.2576,0.2589,0.2588,0.2557,0.2554,0.2551,0.2585,0.2535,0.2534,0.2534,0.2569,0.2571,0.2573,0,0,0,0,0,0,0.2671,0.2665,0.262,0.2643,0.2638,0.2621,0.2605,0.2602,0.2602,0.2577,0.2573,0.2593,0.2557,0.2553,0.2557,0.2582,0.2534,0.2533,0.2567,0.257,0.2572,0.2635,0,0,0,0,0,0,0.2673,0.2666,0.2662,0.2642,0.2636,0.2624,0.2605,0.2602,0.2602,0.26,0.2579,0.2575,0.2556,0.2559,0.2556,0.258,0.2532,0.2565,0.2568,0.2571,0.2631,0.2639,0.2646,0,0,0,0,0,0.2675,0.2666,0.2662,0.2656,0.2629,0.2624,0.2623,0.261,0.2603,0.2608,0.26,0.2575,0.2577,0.256,0.2556,0.258,0.2564,0.2568,0.2571,0.2627,0.2637,0.2646,0,0,0,0,0,0,0.2686,0.2662,0.2657,0.2639,0.2637,0.262,0.2622,0.2617,0.2615,0.2611,0.259,0.2586,0.2602,0.2585,0.2567,0.2602,0.2569,0.2572,0.2613,0.2622,0.263,0.263,0.2531,0,0,0,0,0,0.269,0.2677,0.2663,0.2651,0.2651,0.2641,0.264,0.2631,0.2624,0.2622,0.2612,0.2607,0.2615,0.2613,0.2611,0.2624,0.2639,0.2641,0.2648,0.2655,0.2655,0.272,0.2734,0.2585,0.2585,0.2585,0,0,0.2687,0.2676,0.2666,0.2654,0.265,0.2656,0.2639,0.2636,0.2646,0.2619,0.2631,0.2632,0.2626,0.2646,0.2652,0.2633,0.2708,0.266,0.2665,0.2661,0.2725,0.274,0.2753,0.2587,0.2587,0.2586,0,0,0.2683,0.2671,0.2665,0.2668,0.2667,0.2668,0.2671,0.2664,0.2666,0.2677,0.2671,0.2692,0.2686,0.2699,0.2702,0.2753,0.2749,0.2752,0.2787,0.2851,0.2864,0.2875,0.2921,0.2936,0.2753,0.2754,0.2754,0,0.2688,0.2671,0.2666,0.267,0.2675,0.2677,0.2683,0.2691,0.2689,0.2705,0.2687,0.2725,0.2715,0.2761,0.2775,0.277,0.2799,0.275,0.2862,0.2873,0.2884,0.2928,0.2944,0.2757,0.2757,0.2756,0.2756,0,0.268,0.2677,0.2677,0.2684,0.2695,0.2698,0.2712,0.273,0.2736,0.2749,0.2791,0.2793,0.2818,0.2824,0.2808,0.2883,0.2878,0.2867,0.2837,0.2903,0.2945,0.2961,0.2762,0.2761,0.276,0.2759,0,0,0.2665,0.2669,0.2671,0.268,0.2701,0.2707,0.2741,0.2774,0.2809,0.2822,0.2871,0.289,0.2903,0.2909,0.2909,0.2953,0.305,0.2939,0.2941,0.2984,0.319,0.3117,0.3127,0.3064,0.3067,0.3069,0.3192,0,0.2664,0.2668,0.2676,0.2698,0.2704,0.2731,0.2765,0.2802,0.2838,0.2891,0.2919,0.2961,0.2934,0.2955,0.3001,0.304,0.3092,0.3017,0.312,0.3123,0.305,0.3143,0.2991,0.3082,0.3207,0.321,0.3211,0,0.2654,0.2661,0.2669,0.2706,0.2713,0.2734,0.2801,0.2834,0.2917,0.2948,0.3009,0.3033,0.3104,0.3067,0.3181,0.3137,0.3169,0.3192,0.3197,0.3115,0.3079,0.3036,0.3105,0.3014,0.3235,0.3233,0.3231,0,0.2639,0.2661,0.2667,0.2675,0.2717,0.2738,0.2773,0.285,0.2899,0.2995,0.3047,0.3128,0.3179,0.3239,0.328,0.3246,0.3402,0.3364,0.3332,0.3326,0.3207,0.3186,0.3195,0.3453,0.3453,0.3453,0.3452,0,0.2629,0.2637,0.2659,0.266,0.2694,0.2729,0.2788,0.2842,0.2938,0.3007,0.3076,0.3145,0.3226,0.3312,0.3335,0.3388,0.3457,0.3357,0.3363,0.3224,0.3204,0.3125,0.3083,0.3457,0.3456,0.3455,0.3455,0,0.2606,0.2614,0.2628,0.2665,0.268,0.2706,0.2788,0.284,0.2933,0.3029,0.3063,0.3195,0.33,0.3373,0.3483,0.3456,0.3407,0.351,0.3329,0.3311,0.3146,0.3112,0.3033,0.2944,0.3487,0.3486,0.3486,0,0.2588,0.259,0.2624,0.2636,0.265,0.2695,0.2731,0.2825,0.2885,0.3047,0.3091,0.3231,0.3323,0.3465,0.3445,0.3494,0.3397,0.3362,0.3254,0.3133,0.3103,0.2989,0.2911,0.3134,0.313,0.3127,0.3125,0,0.2567,0.258,0.2594,0.2618,0.2643,0.2679,0.2736,0.278,0.2893,0.2982,0.3106,0.32,0.3322,0.3302,0.3353,0.3352,0.3173,0.33,0.3234,0.2877,0.2696,0.2613,0.3053,0.3099,0.3101,0.3103,0.3105,0.3106,0.2554,0.2561,0.2579,0.2597,0.2626,0.2646,0.2641,0.2718,0.2795,0.2875,0.3022,0.3086,0.3136,0.3181,0.3162,0.2994,0.3003,0.2875,0.2866,0.2778,0.2613,0.2984,0.2992,0.2994,0.2996,0.2997,0.2998,0,0.2525,0.2538,0.2559,0.2562,0.2558,0.2593,0.2627,0.2599,0.2632,0.2745,0.2824,0.2831,0.2828,0.2836,0.2713,0.2574,0.2461,0.25,0.2311,0.2273,0.2663,0.2567,0.2409,0.2409,0.2409,0.2409,0.2409,0.2409,0.2511,0.2507,0.2511,0.248,0.2479,0.242,0.2407,0.2393,0.2432,0.2428,0.2411,0.2452,0.2536,0.2511,0.2353,0.2282,0.2096,0.1986,0.2014,0.2292,0.2326,0.2358,0.2259,0.2038,0.2038,0.1507,0.1503,0.15]},{"header":{"parameterUnit":"m.s-1","parameterCategory":2,"la1":30.2991,"la2":30.254,"lo1":-89.0895,"lo2":-89.0444,"dy":0.0017,"dx":0.0017,"nx":28,"ny":28,"refTime":"2025-08-29T09:00:00:Z","depth":"0","parameterNumber":3,"parameterNumberName":"V-component_of_CURRENTS"},"data":[0,0,0,0,0,0,0,0,0,0,0,0,0,0,0,0,0,0,0,0,0,0,0,0,0,0,0,0,0,0,0,0,0,0,0,0,0,0,0,0,0,0,0,0,0,0,0,0,0,0,0,0,0,0,0,0,0,0,-0.0201,-0.0201,0,-0.023,-0.0231,-0.0231,-0.0255,-0.0255,-0.0254,-0.0254,-0.0292,-0.0293,-0.0294,0,0,0,0,0,0,0,0,0,0,0,0,0,-0.0229,-0.0228,-0.0201,-0.0201,-0.0201,-0.023,-0.0231,-0.0231,-0.0255,-0.0254,-0.0254,-0.0254,-0.0291,-0.0293,-0.0294,0,0,0,0,0,0,0,0,0,0,0,0,0,-0.0237,-0.0228,-0.0201,-0.0213,-0.0214,-0.023,-0.0231,-0.0232,-0.0255,-0.0254,-0.0254,-0.0254,-0.0291,-0.0293,-0.0294,-0.0309,0,0,-0.03,-0.03,0,0,0,0,0,0,0,0,-0.0237,-0.0237,-0.0211,-0.0212,-0.0213,-0.0235,-0.0254,-0.0256,-0.0255,-0.0244,-0.0254,-0.0254,-0.0271,-0.0274,-0.0286,-0.0311,-0.0312,-0.03,-0.0301,-0.0301,-0.0302,0,0,0,0,0,0,0,-0.0236,-0.0236,-0.0217,-0.0211,-0.0212,-0.0238,-0.0239,-0.0255,-0.0262,-0.0245,-0.0245,-0.0242,-0.0272,-0.0284,-0.0287,-0.0313,-0.03,-0.0301,-0.0302,-0.0303,-0.0342,-0.0342,0,0,0,0,0,0,-0.0221,-0.0235,-0.0216,-0.0217,-0.022,-0.0237,-0.0238,-0.0232,-0.0261,-0.0264,-0.0242,-0.0243,-0.0282,-0.0285,-0.0288,-0.0287,-0.0301,-0.0303,-0.0304,-0.0342,-0.0342,-0.0342,0,0,0,0,0,0,-0.0221,-0.0219,-0.0214,-0.0224,-0.0224,-0.0236,-0.0229,-0.0232,-0.0239,-0.0258,-0.0263,-0.0244,-0.0282,-0.0286,-0.0294,-0.029,-0.0304,-0.0305,-0.0342,-0.0342,-0.0342,-0.0298,0,0,0,0,0,0,-0.0222,-0.0219,-0.0216,-0.0222,-0.0223,-0.0213,-0.0229,-0.0233,-0.0235,-0.0237,-0.0261,-0.0265,-0.0282,-0.0292,-0.0296,-0.0292,-0.0307,-0.0342,-0.0342,-0.0342,-0.0299,-0.0297,-0.0294,0,0,0,0,0,-0.0223,-0.0209,-0.0215,-0.0213,-0.0216,-0.0212,-0.0216,-0.0227,-0.0235,-0.0234,-0.0251,-0.0264,-0.0295,-0.0293,-0.0298,-0.0295,-0.0342,-0.0342,-0.0342,-0.0301,-0.0297,-0.0294,0,0,0,0,0,0,-0.0218,-0.021,-0.0217,-0.0202,-0.0204,-0.0214,-0.0211,-0.0223,-0.0237,-0.0238,-0.0262,-0.0267,-0.0275,-0.0292,-0.0288,-0.0308,-0.0322,-0.0323,-0.0289,-0.0286,-0.0283,-0.0258,-0.0308,0,0,0,0,0,-0.0215,-0.0205,-0.0204,-0.0193,-0.0189,-0.0202,-0.0205,-0.0212,-0.0221,-0.0227,-0.0245,-0.0265,-0.0281,-0.0287,-0.0306,-0.0313,-0.0322,-0.0316,-0.0313,-0.0311,-0.0294,-0.0317,-0.0315,-0.0342,-0.0342,-0.0342,0,0,-0.0212,-0.0205,-0.02,-0.0192,-0.0194,-0.0182,-0.0204,-0.0198,-0.0192,-0.0229,-0.0228,-0.0256,-0.0282,-0.0291,-0.0296,-0.0301,-0.0306,-0.0311,-0.0308,-0.0293,-0.0317,-0.0314,-0.0312,-0.0343,-0.0343,-0.0343,0,0,-0.0188,-0.0189,-0.0169,-0.0166,-0.016,-0.0167,-0.0161,-0.0169,-0.0176,-0.018,-0.0208,-0.0226,-0.0251,-0.0268,-0.028,-0.0274,-0.0293,-0.0286,-0.0249,-0.0271,-0.0269,-0.0267,-0.0263,-0.0261,-0.0283,-0.0283,-0.0282,0,-0.0185,-0.0157,-0.0165,-0.0142,-0.0132,-0.0154,-0.013,-0.0141,-0.0154,-0.0154,-0.0171,-0.021,-0.0237,-0.0245,-0.0246,-0.0266,-0.0274,-0.0257,-0.0266,-0.0265,-0.0263,-0.026,-0.0258,-0.028,-0.0281,-0.0281,-0.0281,0,-0.0141,-0.0124,-0.0108,-0.0087,-0.0083,-0.0065,-0.0072,-0.0076,-0.0091,-0.0101,-0.0114,-0.0156,-0.0176,-0.0196,-0.0218,-0.0224,-0.023,-0.0261,-0.027,-0.0257,-0.0255,-0.0254,-0.0277,-0.0278,-0.0279,-0.0279,0,0,-0.0121,-0.0084,-0.008,-0.0059,-0.005,-0.0038,-0.0029,-0.0022,-0.0004,-0.004,-0.0026,-0.0074,-0.01,-0.0116,-0.0155,-0.0177,-0.0179,-0.0209,-0.0211,-0.0196,-0.0208,-0.0192,-0.019,-0.0216,-0.0216,-0.0216,-0.0205,0,-0.0084,-0.0027,-0.0024,0.002,0.005,0.0034,0.0048,0.0046,0.004,0.0046,-0.0005,-0.001,-0.0069,-0.0078,-0.011,-0.0158,-0.0176,-0.0177,-0.023,-0.023,-0.0211,-0.0188,-0.0159,-0.0146,-0.0204,-0.0204,-0.0204,0,-0.004,-0.0006,0.0049,0.0085,0.0097,0.0111,0.0137,0.015,0.0145,0.0139,0.0117,0.0081,0.0048,-0.001,-0.0077,-0.0075,-0.0132,-0.0176,-0.0177,-0.0174,-0.0213,-0.0172,-0.0142,-0.0254,-0.0203,-0.0203,-0.0203,0,-0.0009,0.0043,0.0091,0.0105,0.0139,0.0153,0.0167,0.0177,0.0207,0.0201,0.022,0.0165,0.0152,0.0066,-0.0021,-0.0052,-0.0086,-0.0145,-0.0182,-0.0181,-0.017,-0.0168,-0.0246,-0.0194,-0.0194,-0.0194,-0.0194,0,0.0034,0.0071,0.011,0.0137,0.0193,0.0197,0.0254,0.0258,0.0284,0.034,0.0271,0.0304,0.0168,0.0129,0.0024,-0.0052,-0.0053,-0.0156,-0.0176,-0.0153,-0.015,-0.0259,-0.0337,-0.0194,-0.0194,-0.0194,-0.0194,0,0.0062,0.0089,0.0148,0.0193,0.0212,0.0252,0.0315,0.0364,0.0372,0.0442,0.0443,0.0417,0.0377,0.0256,0.0141,0.0028,-0.0122,-0.0098,-0.0043,-0.0057,-0.0214,-0.029,-0.0371,-0.0429,-0.014,-0.014,-0.0139,0,0.0086,0.0119,0.019,0.0236,0.0259,0.032,0.0372,0.0403,0.0467,0.0526,0.0572,0.0552,0.0582,0.0433,0.0233,0.0076,-0.0069,-0.0035,-0.0102,-0.0198,-0.0299,-0.0355,-0.0403,-0.0066,-0.0065,-0.0064,-0.0064,0,0.0128,0.0149,0.02,0.0289,0.0354,0.0436,0.0512,0.0576,0.0632,0.071,0.0812,0.0844,0.0709,0.058,0.0343,0.0208,-0.0111,-0.0024,-0.0148,-0.0256,-0.0298,-0.0371,-0.0084,-0.0057,-0.0058,-0.0058,-0.0058,-0.0059,0.0159,0.0201,0.0267,0.0355,0.0437,0.0545,0.0623,0.0727,0.0857,0.0996,0.1013,0.1116,0.0874,0.0575,0.0365,-0.0015,-0.0052,-0.0148,-0.0231,-0.0277,-0.034,-0.0019,-0.0006,-0.0007,-0.0007,-0.0008,-0.0008,0,0.0209,0.0255,0.0332,0.0441,0.054,0.0573,0.0719,0.0815,0.0993,0.1157,0.1281,0.1266,0.0972,0.0619,0.0101,-0.0176,-0.0298,-0.0334,-0.0422,-0.0465,-0.0192,-0.0196,-0.0194,-0.0194,-0.0194,-0.0194,-0.0194,-0.0194,0.0239,0.0315,0.0354,0.0514,0.0593,0.0733,0.0824,0.0981,0.1129,0.1365,0.148,0.1538,0.1275,0.0363,-0.0251,-0.0394,-0.0613,-0.0641,-0.0765,-0.0597,-0.0587,-0.0577,-0.06,-0.0682,-0.0683,-0.0993,-0.0996,-0.0999]}],[{"header":{"parameterUnit":"m.s-1","parameterCategory":2,"la1":30.2991,"la2":30.254,"lo1":-89.0895,"lo2":-89.0444,"dy":0.0017,"dx":0.0017,"nx":28,"ny":28,"refTime":"2025-08-29T09:00:00:Z","depth":"2","parameterNumber":2,"parameterNumberName":"U-component_of_CURRENTS"},"data":[0,0,0,0,0,0,0,0,0,0,0,0,0,0,0,0,0,0,0,0,0,0,0,0,0,0,0,0,0,0,0,0,0,0,0,0,0,0,0,0,0,0,0,0,0,0,0,0,0,0,0,0,0,0,0,0,0,0,0.2042,0.2042,0,0.2061,0.2061,0.2061,0.2077,0.2077,0.2077,0.2077,0.208,0.208,0.208,0,0,0,0,0,0,0,0,0,0,0,0,0,0.205,0.2049,0.2041,0.2042,0.2042,0.2061,0.2061,0.2061,0.2077,0.2077,0.2077,0.2077,0.208,0.208,0.208,0,0,0,0,0,0,0,0,0,0,0,0,0,0.2055,0.2049,0.2041,0.2052,0.2053,0.2061,0.2061,0.2061,0.2077,0.2077,0.2077,0.2077,0.208,0.208,0.208,0.2075,0,0,0.208,0.208,0,0,0,0,0,0,0,0,0.2055,0.2055,0.205,0.2051,0.2052,0.2066,0.2065,0.2065,0.2077,0.2068,0.2077,0.2077,0.2074,0.2074,0.2078,0.2075,0.2075,0.208,0.208,0.208,0.208,0,0,0,0,0,0,0,0.2055,0.2054,0.2049,0.205,0.2052,0.2066,0.2067,0.2065,0.2069,0.2069,0.207,0.2072,0.2074,0.2078,0.2078,0.2075,0.208,0.208,0.208,0.2079,0.2131,0.2132,0,0,0,0,0,0,0.205,0.2054,0.2049,0.205,0.2054,0.2066,0.2067,0.2062,0.207,0.2071,0.2071,0.2072,0.2078,0.2078,0.2078,0.2122,0.208,0.2079,0.2079,0.2129,0.2131,0.2133,0,0,0,0,0,0,0.205,0.2049,0.2048,0.2053,0.2054,0.2065,0.206,0.2062,0.2076,0.2072,0.2073,0.2084,0.2078,0.2078,0.2092,0.212,0.2079,0.2079,0.2128,0.213,0.2132,0.2177,0,0,0,0,0,0,0.205,0.2048,0.2052,0.2052,0.2053,0.2061,0.206,0.2062,0.2076,0.2078,0.2083,0.2083,0.2078,0.2093,0.2092,0.2119,0.2079,0.2126,0.2129,0.2131,0.2174,0.2181,0.2186,0,0,0,0,0,0.205,0.2048,0.2051,0.2051,0.2054,0.2061,0.2063,0.2073,0.2077,0.2086,0.2094,0.2083,0.211,0.2093,0.2093,0.212,0.2125,0.2128,0.2131,0.2171,0.2179,0.2186,0,0,0,0,0,0,0.2044,0.2049,0.2053,0.205,0.206,0.2064,0.2073,0.2079,0.2092,0.2099,0.2093,0.2094,0.2119,0.2113,0.2095,0.2145,0.2119,0.2122,0.215,0.2157,0.2163,0.2159,0.2079,0,0,0,0,0,0.2046,0.2051,0.2056,0.2055,0.2061,0.207,0.2077,0.2086,0.2094,0.2101,0.2106,0.2117,0.213,0.2138,0.2145,0.2165,0.2173,0.2186,0.2192,0.2198,0.2196,0.2231,0.224,0.2143,0.2143,0.2143,0,0,0.2047,0.2047,0.2052,0.2056,0.2065,0.2078,0.2075,0.2091,0.2109,0.2098,0.2127,0.2135,0.214,0.2168,0.2179,0.2167,0.2234,0.2202,0.2206,0.2201,0.2235,0.2245,0.2253,0.2145,0.2145,0.2145,0,0,0.2047,0.2049,0.2058,0.2067,0.2083,0.2091,0.2098,0.2113,0.213,0.2154,0.2159,0.2184,0.2196,0.2214,0.2221,0.2265,0.2263,0.2272,0.2301,0.2336,0.2344,0.2351,0.2391,0.2402,0.2278,0.2278,0.2278,0,0.2054,0.2054,0.2062,0.2071,0.2081,0.2098,0.2112,0.2132,0.2154,0.2174,0.217,0.2219,0.222,0.2264,0.2279,0.2279,0.2298,0.2271,0.2344,0.2351,0.2357,0.2396,0.2407,0.228,0.228,0.228,0.2279,0,0.2056,0.2066,0.207,0.209,0.2104,0.2118,0.2144,0.2174,0.2195,0.2214,0.2264,0.2276,0.231,0.2318,0.2306,0.2361,0.2361,0.2345,0.2322,0.237,0.2408,0.2419,0.2284,0.2283,0.2282,0.2282,0,0,0.2051,0.2072,0.2076,0.2087,0.2116,0.2125,0.217,0.2209,0.2247,0.2279,0.2327,0.2355,0.2374,0.2383,0.2391,0.2413,0.2477,0.2398,0.2398,0.2433,0.2563,0.2494,0.2499,0.2473,0.2475,0.2476,0.2578,0,0.2056,0.2073,0.2084,0.2111,0.2123,0.2157,0.2191,0.2233,0.2278,0.2331,0.2367,0.2409,0.2398,0.2423,0.245,0.2466,0.2503,0.2451,0.2515,0.2517,0.2446,0.2507,0.2304,0.2371,0.2588,0.259,0.2591,0,0.2051,0.2066,0.2087,0.2121,0.213,0.2151,0.2218,0.2259,0.2339,0.238,0.2444,0.2464,0.2524,0.2497,0.2573,0.2541,0.2559,0.2565,0.257,0.2491,0.2466,0.2356,0.2381,0.2608,0.2607,0.2605,0.2604,0,0.203,0.2065,0.208,0.2091,0.2134,0.216,0.2198,0.2273,0.2323,0.2425,0.2469,0.2538,0.2587,0.2617,0.2636,0.2614,0.2702,0.2679,0.2641,0.2638,0.2468,0.2445,0.2733,0.2733,0.2733,0.2733,0.2732,0,0.2017,0.2032,0.2073,0.208,0.2114,0.2152,0.221,0.2273,0.2363,0.2421,0.2498,0.255,0.2615,0.2664,0.2671,0.2693,0.2746,0.2658,0.266,0.248,0.2458,0.2656,0.2645,0.2737,0.2736,0.2735,0.2734,0,0.1981,0.2009,0.2033,0.2083,0.2101,0.2132,0.2214,0.2258,0.2358,0.2443,0.2475,0.2585,0.2652,0.2701,0.2761,0.274,0.2759,0.2751,0.2537,0.2511,0.2667,0.2658,0.2733,0.2731,0.273,0.2729,0.2728,0,0.1958,0.1966,0.2025,0.204,0.2061,0.2115,0.2147,0.2253,0.2305,0.2445,0.2475,0.2577,0.2625,0.2707,0.2689,0.2714,0.2755,0.2528,0.2439,0.2673,0.2668,0.2661,0.2654,0.2249,0.2244,0.224,0.2237,0,0.1921,0.1948,0.1968,0.2,0.2033,0.2073,0.2132,0.2163,0.2282,0.234,0.2415,0.2463,0.2563,0.2491,0.253,0.2506,0.2504,0.2448,0.2761,0.227,0.2222,0.2215,0.2223,0.2202,0.2206,0.2208,0.221,0.2212,0.189,0.1897,0.1925,0.1949,0.1987,0.2005,0.1999,0.2052,0.2098,0.2145,0.2269,0.2274,0.2329,0.2277,0.2216,0.2171,0.2345,0.2233,0.2243,0.2258,0.2173,0.2123,0.2071,0.2074,0.2076,0.2078,0.208,0,0.1838,0.185,0.1868,0.1884,0.1877,0.1936,0.196,0.1915,0.1899,0.1979,0.2017,0.1879,0.1858,0.1908,0.1796,0.1805,0.1768,0.1722,0.1655,0.1693,0.1726,0.1611,0.1362,0.1359,0.1357,0.1354,0,0,0.1812,0.1801,0.1811,0.1772,0.1776,0.1738,0.1726,0.1665,0.1675,0.1619,0.1613,0.1768,0.1858,0.1579,0.1556,0.1437,0.1544,0.1377,0.1961,0.1921,0.195,0.2038,0.1906,0,0,0,0,0]},{"header":{"parameterUnit":"m.s-1","parameterCategory":2,"la1":30.2991,"la2":30.254,"lo1":-89.0895,"lo2":-89.0444,"dy":0.0017,"dx":0.0017,"nx":28,"ny":28,"refTime":"2025-08-29T09:00:00:Z","depth":"2","parameterNumber":3,"parameterNumberName":"V-component_of_CURRENTS"},"data":[0,0,0,0,0,0,0,0,0,0,0,0,0,0,0,0,0,0,0,0,0,0,0,0,0,0,0,0,0,0,0,0,0,0,0,0,0,0,0,0,0,0,0,0,0,0,0,0,0,0,0,0,0,0,0,0,0,0,0.0151,0.0151,0,0.0118,0.0118,0.0117,0.0088,0.0087,0.0087,0.0087,0.0041,0.004,0.0039,0,0,0,0,0,0,0,0,0,0,0,0,0,0.0154,0.0154,0.0151,0.0151,0.0151,0.0118,0.0118,0.0117,0.0088,0.0087,0.0087,0.0087,0.0042,0.0041,0.0039,0,0,0,0,0,0,0,0,0,0,0,0,0,0.0139,0.0154,0.0151,0.0133,0.0131,0.0118,0.0118,0.0117,0.0088,0.0087,0.0087,0.0086,0.0042,0.0041,0.0039,0.0039,0,0,0.0035,0.0034,0,0,0,0,0,0,0,0,0.014,0.0139,0.0136,0.0134,0.0132,0.0107,0.0102,0.009,0.0088,0.0103,0.0087,0.0086,0.0063,0.006,0.0054,0.0037,0.0035,0.0035,0.0034,0.0033,0.0033,0,0,0,0,0,0,0,0.0141,0.014,0.0137,0.0135,0.0133,0.0114,0.0111,0.0099,0.0085,0.0102,0.01,0.0097,0.0062,0.0055,0.0052,0.0034,0.0035,0.0034,0.0033,0.0032,0.0004,0.0004,0,0,0,0,0,0,0.0149,0.0142,0.0139,0.0137,0.0136,0.0114,0.0111,0.0115,0.0085,0.0081,0.0098,0.0096,0.0058,0.0054,0.0051,0.0052,0.0033,0.0032,0.0031,0.0004,0.0004,0.0004,0,0,0,0,0,0,0.015,0.015,0.014,0.0138,0.0136,0.0115,0.0119,0.0114,0.0107,0.0083,0.0077,0.0095,0.0057,0.0053,0.0043,0.005,0.0031,0.003,0.0004,0.0004,0.0004,0.0053,0,0,0,0,0,0,0.015,0.015,0.0154,0.0139,0.0136,0.0137,0.0119,0.0114,0.0106,0.0104,0.0078,0.0074,0.0057,0.0045,0.0041,0.0048,0.0029,0.0004,0.0004,0.0004,0.0051,0.0055,0.0058,0,0,0,0,0,0.015,0.0161,0.0155,0.0154,0.0143,0.0138,0.0135,0.0117,0.0107,0.0108,0.009,0.0074,0.0043,0.0044,0.004,0.0046,0.0003,0.0004,0.0004,0.005,0.0054,0.0058,0,0,0,0,0,0,0.0163,0.0158,0.0151,0.0159,0.0151,0.0133,0.0132,0.012,0.0107,0.0103,0.0079,0.0073,0.0066,0.0049,0.005,0.0037,0.002,0.0019,0.0056,0.006,0.0063,0.008,0.0028,0,0,0,0,0,0.0169,0.0175,0.0165,0.017,0.0168,0.015,0.0145,0.0134,0.0121,0.0114,0.0097,0.0077,0.0063,0.0056,0.004,0.0037,0.0019,0.0036,0.0039,0.0042,0.0052,0.0031,0.0034,0.0005,0.0005,0.0005,0,0,0.0172,0.0173,0.0174,0.0173,0.0164,0.0171,0.0146,0.0142,0.0146,0.0112,0.0111,0.0088,0.0064,0.0059,0.0054,0.0047,0.0039,0.0042,0.0045,0.0054,0.0032,0.0035,0.0037,0.0005,0.0005,0.0005,0,0,0.0189,0.0186,0.0198,0.0197,0.0191,0.0184,0.0185,0.017,0.0161,0.0156,0.0133,0.0118,0.0096,0.0083,0.0073,0.0085,0.0057,0.0075,0.0108,0.0088,0.009,0.0092,0.007,0.007,0.0078,0.0078,0.0078,0,0.0193,0.0212,0.0199,0.0213,0.0219,0.0194,0.0211,0.02,0.0183,0.0184,0.0162,0.0133,0.0109,0.0109,0.011,0.0094,0.0076,0.0098,0.0093,0.0095,0.0096,0.0073,0.0072,0.008,0.008,0.008,0.008,0,0.0222,0.0236,0.0244,0.0258,0.0261,0.027,0.0259,0.0254,0.0239,0.0232,0.0221,0.0184,0.017,0.0155,0.0136,0.0135,0.0118,0.01,0.0087,0.0102,0.0076,0.0074,0.0084,0.0083,0.0082,0.0082,0,0,0.0236,0.026,0.0263,0.0282,0.0288,0.0296,0.0302,0.0309,0.0325,0.029,0.0304,0.0266,0.0243,0.023,0.0198,0.0179,0.0165,0.0147,0.0145,0.0132,0.0118,0.0102,0.0098,0.0145,0.0145,0.0145,0.0095,0,0.0264,0.0307,0.0309,0.0348,0.0371,0.0357,0.0374,0.0374,0.0367,0.0373,0.0326,0.0325,0.0273,0.0266,0.0237,0.0188,0.0162,0.018,0.0099,0.0097,0.0087,0.0097,0.0112,0.0069,0.0093,0.0093,0.0093,0,0.0295,0.0324,0.0369,0.0409,0.0417,0.0433,0.0461,0.0476,0.0474,0.0466,0.0446,0.0411,0.0377,0.0327,0.0246,0.026,0.0194,0.0148,0.0144,0.0115,0.0078,0.0057,0.0064,0.0089,0.0089,0.009,0.009,0,0.0323,0.0366,0.0408,0.0421,0.0458,0.0471,0.0491,0.0505,0.0537,0.0529,0.054,0.0488,0.0468,0.0379,0.0272,0.026,0.0181,0.0151,0.0073,0.0071,0.0061,0.0059,0.0091,0.0091,0.0091,0.0091,0.0091,0,0.036,0.0392,0.0425,0.0448,0.0506,0.0515,0.0576,0.0581,0.0612,0.0663,0.0594,0.061,0.0481,0.0415,0.0303,0.0188,0.02,0.0085,0.006,0.0078,0.0077,0.0076,0.0075,0.0089,0.009,0.009,0.0091,0,0.0386,0.0405,0.046,0.0504,0.0522,0.0566,0.0636,0.0686,0.0697,0.0754,0.0752,0.071,0.0624,0.0484,0.035,0.0241,0.0123,0.0075,0.0103,0.0082,0.0016,0.0018,-0.0014,-0.0015,-0.0016,-0.0017,-0.0017,0,0.0406,0.0437,0.0501,0.0543,0.0564,0.0631,0.0686,0.0725,0.0789,0.082,0.0856,0.0788,0.0757,0.055,0.035,0.0153,0.0124,0.0034,0.0011,0.0028,0.0007,0.001,0.0013,0.0013,0.0012,0.0012,0.0012,0,0.045,0.0468,0.0513,0.0599,0.0659,0.074,0.0819,0.0882,0.0935,0.0974,0.1019,0.0991,0.0795,0.061,0.0337,0.0201,0.0065,0.0024,0.0039,0.0039,0.005,0.003,0.0033,0.001,0.001,0.0011,0.0011,0.0011,0.0483,0.0522,0.0582,0.0664,0.0742,0.0841,0.0914,0.1,0.1098,0.1159,0.1137,0.1093,0.0878,0.0535,0.0301,0.0051,0.0063,-0.0031,-0.0029,-0.0027,-0.0013,-0.0004,-0.0051,-0.0051,-0.0051,-0.0051,-0.0052,0,0.0531,0.0572,0.0647,0.0745,0.0836,0.0868,0.1002,0.1074,0.1186,0.1227,0.125,0.1036,0.0824,0.0567,0.02,-0.0015,-0.0033,-0.0087,-0.006,-0.0057,-0.0054,-0.004,-0.0086,-0.0087,-0.0088,-0.0088,0,0,0.0555,0.0629,0.0663,0.0807,0.0879,0.1002,0.108,0.1175,0.1238,0.1275,0.1248,0.1199,0.0895,0.0624,0.0332,0.0122,0.008,0.0077,0.0129,0.0199,0.0204,0.0002,0.0031,0,0,0,0,0]}],[{"header":{"parameterUnit":"m.s-1","parameterCategory":2,"la1":30.2991,"la2":30.254,"lo1":-89.0895,"lo2":-89.0444,"dy":0.0017,"dx":0.0017,"nx":28,"ny":28,"refTime":"2025-08-29T09:00:00:Z","depth":"4","parameterNumber":2,"parameterNumberName":"U-component_of_CURRENTS"},"data":[0,0,0,0,0,0,0,0,0,0,0,0,0,0,0,0,0,0,0,0,0,0,0,0,0,0,0,0,0,0,0,0,0,0,0,0,0,0,0,0,0,0,0,0,0,0,0,0,0,0,0,0,0,0,0,0,0,0,0.1188,0.1188,0,0.1229,0.1229,0.1229,0.1264,0.1264,0.1265,0.1266,0.1312,0.1313,0.1313,0,0,0,0,0,0,0,0,0,0,0,0,0,0.1129,0.1129,0.1188,0.1189,0.1189,0.1229,0.1229,0.1229,0.1263,0.1264,0.1265,0.1266,0.1312,0.1313,0.1313,0,0,0,0,0,0,0,0,0,0,0,0,0,0.1157,0.113,0.1188,0.1214,0.1217,0.1229,0.1229,0.1229,0.1263,0.1264,0.1265,0.1266,0.1312,0.1312,0.1313,0.1298,0,0,0.1316,0.1316,0,0,0,0,0,0,0,0,0.1156,0.1159,0.1209,0.1212,0.1215,0.1245,0.1226,0.1254,0.1263,0.1242,0.1266,0.1267,0.1292,0.1294,0.1295,0.1301,0.1303,0.1316,0.1317,0.1317,0.1317,0,0,0,0,0,0,0,0.1154,0.1157,0.1201,0.121,0.1214,0.122,0.1225,0.1231,0.1258,0.1244,0.1247,0.1257,0.1293,0.1294,0.1296,0.1303,0.1316,0.1317,0.1318,0.1318,0.1387,0.1388,0,0,0,0,0,0,0.1155,0.1155,0.1199,0.1202,0.1191,0.1221,0.1226,0.1232,0.1258,0.1264,0.1256,0.1259,0.1292,0.1295,0.1298,0.136,0.1317,0.1318,0.1318,0.1386,0.1387,0.1389,0,0,0,0,0,0,0.1153,0.1158,0.1198,0.1183,0.1189,0.1221,0.1227,0.1232,0.1263,0.1268,0.1273,0.1286,0.1293,0.1297,0.1331,0.136,0.1318,0.1319,0.1384,0.1386,0.1388,0.1435,0,0,0,0,0,0,0.1151,0.1157,0.1172,0.1183,0.119,0.1223,0.1227,0.1232,0.1267,0.1271,0.1294,0.1298,0.1294,0.133,0.1332,0.136,0.132,0.1382,0.1385,0.1387,0.1432,0.1438,0.1444,0,0,0,0,0,0.1149,0.1162,0.1172,0.1178,0.1205,0.1224,0.1229,0.1252,0.1268,0.1283,0.1304,0.1299,0.1347,0.1332,0.1334,0.1363,0.1381,0.1384,0.1387,0.1429,0.1437,0.1444,0,0,0,0,0,0,0.1146,0.1167,0.1178,0.1198,0.122,0.1232,0.1254,0.1268,0.1295,0.131,0.1312,0.1317,0.1359,0.1354,0.1337,0.1391,0.1364,0.1368,0.1396,0.1403,0.1409,0.1413,0.1321,0,0,0,0,0,0.1151,0.1169,0.1187,0.1208,0.1221,0.1243,0.1259,0.1276,0.1297,0.1311,0.1327,0.1347,0.1366,0.1381,0.1393,0.1419,0.1422,0.1441,0.1447,0.1452,0.1458,0.1488,0.1497,0.1398,0.1398,0.1398,0,0,0.1157,0.1173,0.1183,0.121,0.123,0.125,0.1256,0.129,0.1313,0.1311,0.1355,0.137,0.1379,0.1411,0.143,0.1415,0.1483,0.1456,0.146,0.1463,0.1492,0.1502,0.151,0.14,0.14,0.1399,0,0,0.1169,0.1192,0.1209,0.1228,0.1265,0.1276,0.1293,0.1321,0.1344,0.1382,0.139,0.1425,0.1452,0.1463,0.1471,0.1518,0.1515,0.1527,0.156,0.159,0.1598,0.1606,0.1625,0.1634,0.1529,0.1529,0.1529,0,0.1178,0.1199,0.1218,0.1239,0.126,0.1292,0.1313,0.1337,0.1375,0.1399,0.1407,0.1467,0.1475,0.1514,0.1533,0.1532,0.1546,0.1531,0.1598,0.1605,0.1612,0.163,0.1639,0.1532,0.1531,0.1531,0.1531,0,0.1192,0.1221,0.1236,0.127,0.1293,0.1322,0.1353,0.1388,0.1424,0.1448,0.1508,0.1524,0.1561,0.1571,0.1568,0.1622,0.1616,0.1602,0.1578,0.1625,0.1641,0.165,0.1535,0.1534,0.1534,0.1533,0,0,0.118,0.1235,0.1244,0.1265,0.1314,0.133,0.1379,0.1425,0.1467,0.1512,0.1562,0.1604,0.1628,0.1639,0.1644,0.1669,0.1729,0.1662,0.1663,0.1679,0.1797,0.1687,0.1685,0.1732,0.1734,0.1735,0.1791,0,0.119,0.1228,0.1255,0.1299,0.132,0.1364,0.1404,0.1453,0.1503,0.1559,0.1598,0.1651,0.1649,0.1678,0.1706,0.1727,0.1754,0.1715,0.1752,0.1753,0.1646,0.1692,0.1741,0.1797,0.1799,0.18,0.1801,0,0.1188,0.1216,0.1257,0.1313,0.1329,0.1364,0.1437,0.1478,0.1561,0.1604,0.1668,0.1701,0.1762,0.1746,0.1814,0.1794,0.1805,0.1811,0.1813,0.1698,0.1657,0.174,0.1816,0.1815,0.1814,0.1813,0.1812,0,0.1153,0.1215,0.1248,0.1268,0.1337,0.1374,0.142,0.1499,0.1545,0.1643,0.1692,0.1763,0.1812,0.1842,0.1871,0.1854,0.1931,0.1904,0.1812,0.1805,0.1867,0.1858,0.1947,0.1947,0.1947,0.1946,0.1946,0,0.1135,0.1165,0.1242,0.1259,0.131,0.1365,0.1433,0.1492,0.1582,0.1637,0.172,0.1766,0.1842,0.1891,0.1898,0.1885,0.1959,0.1826,0.1814,0.1885,0.1878,0.1873,0.1863,0.1948,0.1948,0.1948,0.1947,0,0.1085,0.1138,0.118,0.1264,0.1294,0.1332,0.1434,0.1478,0.1579,0.1652,0.1689,0.1796,0.1857,0.1911,0.1965,0.1912,0.1912,0.1887,0.1971,0.1961,0.1758,0.1751,0.1784,0.1781,0.1778,0.1775,0.1773,0,0.106,0.1078,0.1172,0.1199,0.1244,0.1313,0.1357,0.1465,0.1507,0.1649,0.1667,0.1776,0.1831,0.1823,0.1886,0.1897,0.1872,0.1859,0.1793,0.1758,0.1744,0.1741,0.1737,0.1769,0.1768,0.1767,0.1767,0,0.1008,0.1055,0.109,0.1149,0.1203,0.1248,0.1319,0.1342,0.1459,0.1568,0.1611,0.1647,0.1713,0.175,0.178,0.1779,0.1858,0.1828,0.1833,0.1771,0.174,0.1728,0.1728,0.1757,0.1758,0.1759,0.176,0,0.0974,0.0985,0.1041,0.1083,0.1141,0.1157,0.1208,0.1255,0.1312,0.1462,0.1474,0.1588,0.1692,0.169,0.1714,0.1713,0.1678,0.1611,0.1626,0.1638,0.1564,0.1501,0.144,0,0,0,0,0,0.0933,0.0935,0.0966,0.0999,0.1049,0.1086,0.1166,0.1219,0.1335,0.1327,0.1395,0.1447,0.1493,0.1553,0.1521,0.1646,0.1683,0.1601,0.1613,0.1701,0.1713,0.1638,0,0,0,0,0,0,0.0902,0.093,0.0937,0.0918,0.0926,0.0969,0.1019,0.1099,0.1097,0.1224,0.1257,0.1356,0.1423,0.1496,0.1492,0.151,0.1486,0.1676,0.1672,0.1695,0.1705,0.1714,0.1642,0,0,0,0,0]},{"header":{"parameterUnit":"m.s-1","parameterCategory":2,"la1":30.2991,"la2":30.254,"lo1":-89.0895,"lo2":-89.0444,"dy":0.0017,"dx":0.0017,"nx":28,"ny":28,"refTime":"2025-08-29T09:00:00:Z","depth":"4","parameterNumber":3,"parameterNumberName":"V-component_of_CURRENTS"},"data":[0,0,0,0,0,0,0,0,0,0,0,0,0,0,0,0,0,0,0,0,0,0,0,0,0,0,0,0,0,0,0,0,0,0,0,0,0,0,0,0,0,0,0,0,0,0,0,0,0,0,0,0,0,0,0,0,0,0,0.0184,0.0184,0,0.0164,0.0164,0.0164,0.0153,0.0153,0.0153,0.0153,0.0134,0.0133,0.0133,0,0,0,0,0,0,0,0,0,0,0,0,0,0.0189,0.0189,0.0184,0.0184,0.0184,0.0164,0.0164,0.0164,0.0153,0.0153,0.0153,0.0153,0.0134,0.0133,0.0133,0,0,0,0,0,0,0,0,0,0,0,0,0,0.018,0.0189,0.0185,0.0176,0.0175,0.0164,0.0164,0.0164,0.0153,0.0153,0.0153,0.0153,0.0134,0.0133,0.0133,0.0129,0,0,0.013,0.013,0,0,0,0,0,0,0,0,0.018,0.018,0.0178,0.0177,0.0176,0.0161,0.0158,0.0152,0.0153,0.0162,0.0153,0.0153,0.0143,0.0142,0.0138,0.0128,0.0127,0.013,0.013,0.013,0.0129,0,0,0,0,0,0,0,0.0181,0.018,0.0176,0.0178,0.0176,0.0165,0.0164,0.0157,0.0153,0.0161,0.016,0.0158,0.0143,0.0139,0.0137,0.0127,0.013,0.013,0.0129,0.0129,0.0117,0.0117,0,0,0,0,0,0,0.0185,0.0181,0.0177,0.0176,0.0178,0.0165,0.0164,0.0166,0.0153,0.0151,0.0158,0.0157,0.014,0.0138,0.0137,0.0146,0.013,0.0129,0.0128,0.0117,0.0117,0.0117,0,0,0,0,0,0,0.0185,0.0185,0.0178,0.0178,0.0176,0.0165,0.0167,0.0166,0.0165,0.0151,0.0148,0.0159,0.014,0.0138,0.0136,0.0145,0.0129,0.0128,0.0117,0.0117,0.0117,0.0156,0,0,0,0,0,0,0.0185,0.0185,0.019,0.0178,0.0176,0.0177,0.0167,0.0165,0.0163,0.0162,0.0151,0.0149,0.014,0.0137,0.0135,0.0143,0.0127,0.0117,0.0117,0.0117,0.0154,0.0157,0.016,0,0,0,0,0,0.0186,0.0193,0.019,0.019,0.0182,0.0177,0.0175,0.0167,0.0163,0.0166,0.0159,0.015,0.0137,0.0137,0.0135,0.0143,0.0117,0.0117,0.0117,0.0153,0.0156,0.0159,0,0,0,0,0,0,0.0195,0.0192,0.0189,0.0194,0.0188,0.0175,0.0176,0.017,0.0166,0.0166,0.0153,0.0151,0.0151,0.014,0.014,0.0139,0.0125,0.0125,0.0153,0.0156,0.0158,0.0168,0.0127,0,0,0,0,0,0.02,0.0206,0.0197,0.0202,0.02,0.0189,0.0186,0.0181,0.0174,0.0172,0.0165,0.0156,0.015,0.0148,0.0139,0.0141,0.0122,0.0143,0.0146,0.0148,0.0154,0.013,0.0131,0.0118,0.0118,0.0118,0,0,0.0203,0.0203,0.0206,0.0204,0.0199,0.0204,0.0188,0.0186,0.0192,0.0171,0.0178,0.0165,0.0151,0.0153,0.0152,0.0147,0.014,0.0149,0.0151,0.0155,0.013,0.0131,0.0133,0.0119,0.0119,0.0119,0,0,0.0215,0.0215,0.0224,0.0224,0.022,0.0216,0.0218,0.0208,0.0206,0.0208,0.0194,0.0188,0.0179,0.0172,0.0167,0.0179,0.0154,0.0175,0.02,0.0177,0.0178,0.0178,0.0151,0.0149,0.0178,0.0178,0.0178,0,0.0219,0.0233,0.0224,0.0234,0.024,0.0224,0.0237,0.0232,0.0224,0.0228,0.0215,0.0202,0.0188,0.0193,0.0196,0.0186,0.0167,0.0191,0.0181,0.0181,0.0181,0.0153,0.015,0.018,0.018,0.018,0.018,0,0.0238,0.0251,0.0256,0.0268,0.0272,0.028,0.0274,0.0276,0.027,0.0266,0.0264,0.0241,0.0235,0.0227,0.0216,0.0214,0.0197,0.0186,0.0174,0.0184,0.0154,0.0151,0.0183,0.0182,0.0182,0.0181,0,0,0.0245,0.0266,0.0269,0.0286,0.0293,0.0299,0.031,0.0318,0.0333,0.0313,0.0324,0.0304,0.029,0.0282,0.0263,0.0242,0.0221,0.0218,0.0216,0.0195,0.0166,0.0148,0.0142,0.0207,0.0207,0.0207,0.0144,0,0.0264,0.0296,0.03,0.0333,0.035,0.0347,0.0364,0.0369,0.0367,0.0372,0.0341,0.0343,0.0312,0.031,0.0284,0.0239,0.0214,0.0239,0.0156,0.0154,0.014,0.0138,0.0206,0.0141,0.014,0.014,0.0139,0,0.0282,0.0305,0.0341,0.0378,0.0385,0.0402,0.043,0.0445,0.0446,0.0443,0.0431,0.0406,0.0378,0.0345,0.027,0.0287,0.0232,0.019,0.0186,0.0155,0.0129,0.0129,0.0132,0.0133,0.0133,0.0134,0.0134,0,0.0296,0.0334,0.0369,0.0381,0.0415,0.0433,0.0454,0.047,0.0495,0.0491,0.0499,0.0457,0.0438,0.0364,0.0274,0.0273,0.0181,0.0167,0.0097,0.0094,0.0113,0.0113,0.011,0.011,0.011,0.0111,0.0111,0,0.0317,0.0345,0.0381,0.0401,0.0451,0.0465,0.0518,0.0527,0.0551,0.0584,0.0542,0.0541,0.0442,0.0376,0.0287,0.018,0.0189,0.01,0.0078,0.0129,0.0132,0.011,0.011,0.0108,0.0109,0.0109,0.011,0,0.0328,0.035,0.0395,0.044,0.046,0.0498,0.0565,0.0603,0.0617,0.0651,0.0651,0.0605,0.0518,0.0408,0.0284,0.0204,0.01,0.0058,0.012,0.0102,0.0025,0.0028,-0.0023,-0.0024,-0.0025,-0.0026,-0.0027,0,0.0336,0.0361,0.0425,0.046,0.0484,0.0546,0.0593,0.0633,0.0672,0.0687,0.0699,0.0632,0.0581,0.0397,0.0276,0.0102,0.0075,0.0016,0.002,0.0028,0.0012,0.0017,0.0021,-0.0028,-0.0029,-0.0029,-0.0029,0,0.0354,0.0377,0.0415,0.0488,0.0543,0.0613,0.0676,0.0709,0.075,0.0759,0.0737,0.0643,0.0542,0.0397,0.026,0.0135,0.0053,0.0006,0.0007,0.001,0.0021,0.0007,0.0013,-0.0032,-0.0032,-0.0032,-0.0031,0,0.0368,0.0397,0.0449,0.0514,0.0587,0.0657,0.0692,0.0734,0.0772,0.0779,0.0767,0.0659,0.06,0.0414,0.0288,0.0162,0.0128,0.0081,0.0078,0.008,0.0125,0.0155,0.0125,0,0,0,0,0,0.0381,0.0414,0.0472,0.0543,0.0618,0.0663,0.0739,0.0769,0.0801,0.0789,0.0781,0.0685,0.0501,0.0428,0.0298,0.0262,0.0101,0.0104,0.0045,-0.0051,-0.0047,-0.0014,0,0,0,0,0,0,0.0388,0.0441,0.0468,0.0558,0.061,0.0696,0.0748,0.0771,0.0767,0.0773,0.0682,0.0638,0.0465,0.0571,0.029,0.0253,0.0194,0.0022,0.0019,-0.0053,-0.005,-0.0047,-0.0011,0,0,0,0,0]}]]